CZ-4B R/B

基本信息
目录编号:
38039
目录名称:
CZ-4B R/B
国际标识:
2011-079B
轨道中心:
EARTH
物体状态:
在轨
发射日期:
2011-12-22 UTC
国别:
中国 (CN)
轨道信息
数据来源: 国际轨道数据
星历时间: 2026-09-02T15:09:22+0800
半长轴: 6894.394km
偏心率: 0.0122858
轨道倾角: 98.459°
近地点辐角: 99.948°
升交点赤经: 93.292°
平近点角: 261.564°
近地点: 431.553km
远地点: 600.961km
周期: 94.952分钟
每日圈数: 15.165567
详细信息
发射场:
TSC
轨道高度:
LEO
数据来源:
AOE Integration Group
参考系:
TEME
时间系统:
UTC
历元类型:
SGP4
2D轨道图
3D轨道图
轨道高度分析图
轨道倾角分析图
轨道综合分析图
查看轨道综合分析图